Location: Derby
(52.9213°N, 1.4761°W)
Time: 01:44:31
(UTC+01:00)

A-11 Canister half - Pass Details

Date: 19 May 2025
Orbit: 1524 x 1684 km, 47.3° (Epoch: 12 June)

Event Time Altitude Azimuth Distance (km) Brightness Sun altitude
Rises 02:43:03 0° 286° (WNW) 4,824 11.5 -14.1°
Reaches altitude 10° 02:46:39 10° 276° (W) 3,859 10.9 -13.9°
Maximum altitude 02:54:37 29° 221° (SW) 2,690 9.7 -13.3°
Drops below altitude 10° 03:02:44 10° 167° (SSE) 3,928 10.7 -12.7°
Sets 03:06:28 0° 157° (SSE) 4,922 11.3 -12.5°
